Weather History for KHAI - August, 2013

Change the Weather History Date:

Thursday, August 22, 2013

  Actual Average Record
Temperature  
Mean Temperature 72 °F -  
Max Temperature 79 °F 81 °F 94 °F (1955)
Min Temperature 65 °F 57 °F 43 °F (1956)
Cooling Degree Days 7    
Growing Degree Days 22 (Base 50)    
Moisture  
Dew Point 67 °F    
Average Humidity 86    
Maximum Humidity 96    
Minimum Humidity 74    
Precipitation  
Precipitation 0.00 in - - ()
Sea Level Pressure  
Sea Level Pressure 30.07 in    
Wind  
Wind Speed 5 mph (West)    
Max Wind Speed 16 mph    
Max Gust Speed 28 mph    
Visibility 9 miles    
Events Rain    
Averages and records for this station are not official NWS values.
T = Trace of Precipitation, MM = Missing Value Source: NWS Daily Summary

Daily Weather History Graph

Daily Weather History Graph

Search for Another Location

Airport or City:

Trip Planner

Search our weather history database for the weather conditions in past years. The results will help you decide how hot, cold, wet, or windy it might be!

Date:

Astronomy

Aug. 22, 2013 Rise Set
Actual Time 6:57 AM EDT 8:31 PM EDT
Civil Twilight 6:28 AM EDT 9:01 PM EDT
Nautical Twilight 5:52 AM EDT 9:36 PM EDT
Astronomical Twilight 5:14 AM EDT 10:14 PM EDT
Moon 9:12 PM EDT (8/22) 8:48 AM EDT (8/22)
Length of Visible Light 14h 32m
Length of Day
13h 33m
Waning Gibbous, 97% of the Moon is Illuminated
Aug 22
Waning Gibbous
Aug 28
Last Quarter
Sep 5
New
Sep 12
First Quarter
Sep 19
Full

Hourly Weather History & Observations

Time (EDT) Temp. Dew Point Humidity Pressure Visibility Wind Dir Wind Speed Gust Speed Precip Events Conditions
12:14 AM 71.8 °F 66.4 °F 83% 30.03 in 10.0 mi SSW 4.6 mph - N/A   Scattered Clouds
12:35 AM 73.0 °F 66.6 °F 80% 30.05 in 10.0 mi Calm Calm - N/A   Mostly Cloudy
12:55 AM 73.8 °F 66.6 °F 78% 30.06 in 10.0 mi Calm Calm - N/A   Overcast
1:14 AM 73.6 °F 66.6 °F 79% 30.07 in 10.0 mi Calm Calm - N/A   Overcast
1:35 AM 73.4 °F 67.1 °F 81% 30.09 in 10.0 mi North 3.5 mph - N/A   Overcast
1:54 AM 73.8 °F 65.3 °F 75% 30.10 in 10.0 mi North 11.5 mph 23.0 mph N/A Rain Rain
2:15 AM 71.6 °F 64.9 °F 79% 30.11 in 10.0 mi NW 6.9 mph - N/A Rain Light Rain
2:34 AM 69.8 °F 65.1 °F 85% 30.11 in 10.0 mi West 5.8 mph - N/A Rain Rain
2:55 AM 68.7 °F 65.3 °F 89% 30.11 in 7.0 mi NW 4.6 mph - N/A Rain Heavy Rain
3:15 AM 68.2 °F 65.3 °F 90% 30.08 in 5.0 mi Calm Calm - N/A Rain Heavy Rain
3:34 AM 67.8 °F 65.5 °F 92% 30.04 in 7.0 mi South 8.1 mph - N/A Rain Light Rain
3:55 AM 67.5 °F 65.3 °F 93% 30.03 in 10.0 mi SSW 9.2 mph - N/A Rain Light Rain
4:15 AM 67.5 °F 65.3 °F 93% 30.02 in 10.0 mi South 8.1 mph - N/A   Clear
4:35 AM 67.3 °F 64.9 °F 92% 30.03 in 10.0 mi SW 4.6 mph - N/A   Clear
4:55 AM 66.9 °F 64.6 °F 92% 30.02 in 10.0 mi SSW 4.6 mph - N/A   Clear
5:15 AM 66.6 °F 64.4 °F 93% 30.02 in 10.0 mi SW 3.5 mph - N/A   Clear
5:35 AM 66.7 °F 64.8 °F 93% 30.03 in 7.0 mi Calm Calm - N/A   Clear
5:55 AM 66.0 °F 64.2 °F 94% 30.05 in 7.0 mi WNW 4.6 mph - N/A   Clear
6:14 AM 66.4 °F 64.6 °F 94% 30.04 in 7.0 mi Calm Calm - N/A   Clear
6:35 AM 66.6 °F 64.6 °F 93% 30.04 in 7.0 mi Calm Calm - N/A   Clear
6:55 AM 65.5 °F 63.7 °F 94% 30.04 in 7.0 mi Calm Calm - N/A   Clear
7:14 AM 65.5 °F 63.9 °F 94% 30.05 in 4.0 mi Calm Calm - N/A   Clear
7:35 AM 65.5 °F 64.2 °F 96% 30.06 in 3.0 mi Calm Calm - N/A   Clear
7:55 AM 66.4 °F 64.9 °F 95% 30.06 in 4.0 mi SSW 3.5 mph - N/A   Clear
8:14 AM 67.3 °F 66.0 °F 96% 30.06 in 4.0 mi Calm Calm - N/A   Clear
8:35 AM 68.0 °F 66.4 °F 95% 30.07 in 4.0 mi SW 3.5 mph - N/A   Scattered Clouds
8:55 AM 68.7 °F 67.1 °F 95% 30.06 in 5.0 mi WNW 4.6 mph - N/A   Clear
9:15 AM 70.5 °F 68.4 °F 93% 30.07 in 5.0 mi SW 4.6 mph - N/A   Clear
9:35 AM 72.0 °F 68.9 °F 90% 30.07 in 7.0 mi WSW 4.6 mph - N/A   Clear
9:55 AM 73.9 °F 69.3 °F 85% 30.07 in 10.0 mi WSW 4.6 mph - N/A   Clear
10:15 AM 74.8 °F 69.3 °F 83% 30.07 in 10.0 mi West 8.1 mph - N/A   Mostly Cloudy
10:35 AM 74.7 °F 69.3 °F 83% 30.08 in 10.0 mi West 5.8 mph - N/A   Overcast
10:55 AM 76.3 °F 69.6 °F 80% 30.07 in 10.0 mi West 3.5 mph - N/A   Mostly Cloudy
11:15 AM 77.9 °F 70.0 °F 76% 30.08 in 10.0 mi West 5.8 mph - N/A   Scattered Clouds
11:34 AM 79.0 °F 70.2 °F 74% 30.08 in 10.0 mi West 6.9 mph - N/A   Clear
11:55 AM 79.3 °F 70.9 °F 75% 30.08 in 10.0 mi West 9.2 mph - N/A   Scattered Clouds
12:15 PM 77.7 °F 69.8 °F 76% 30.08 in 10.0 mi WNW 9.2 mph - N/A   Overcast
12:35 PM 77.5 °F 69.8 °F 77% 30.08 in 10.0 mi WNW 4.6 mph - N/A   Overcast
12:55 PM 79.0 °F 70.9 °F 76% 30.08 in 10.0 mi WNW 3.5 mph - N/A   Mostly Cloudy
1:15 PM 78.8 °F 70.2 °F 75% 30.08 in 10.0 mi West 5.8 mph - N/A   Scattered Clouds
1:35 PM 77.7 °F 69.8 °F 76% 30.09 in 10.0 mi WSW 5.8 mph - N/A   Overcast
1:55 PM 77.9 °F 70.0 °F 76% 30.09 in 10.0 mi West 8.1 mph - N/A   Overcast
2:15 PM 76.5 °F 69.4 °F 79% 30.09 in 10.0 mi West 11.5 mph - N/A   Overcast
2:35 PM 72.5 °F 68.2 °F 86% 30.10 in 3.0 mi West 13.8 mph 27.6 mph N/A Rain Heavy Rain
2:54 PM 71.8 °F 68.5 °F 89% 30.10 in 5.0 mi West 16.1 mph 19.6 mph N/A Rain Light Rain
3:15 PM 71.6 °F 68.4 °F 89% 30.08 in 7.0 mi West 13.8 mph 19.6 mph N/A   Light Drizzle
3:35 PM 71.4 °F 67.8 °F 88% 30.08 in 10.0 mi NW 13.8 mph - N/A   Overcast
3:54 PM 71.2 °F 67.3 °F 87% 30.08 in 10.0 mi NW 13.8 mph 24.2 mph N/A   Overcast
4:15 PM 70.3 °F 66.2 °F 87% 30.07 in 10.0 mi NW 11.5 mph - N/A   Overcast
4:35 PM 70.2 °F 65.5 °F 85% 30.07 in 10.0 mi North 5.8 mph - N/A   Overcast
4:55 PM 70.9 °F 65.8 °F 84% 30.07 in 10.0 mi North 4.6 mph - N/A   Mostly Cloudy
5:15 PM 70.7 °F 65.1 °F 82% 30.07 in 10.0 mi North 4.6 mph - N/A   Scattered Clouds
5:35 PM 71.1 °F 65.5 °F 82% 30.07 in 10.0 mi East 4.6 mph - N/A   Clear
5:55 PM 70.9 °F 65.5 °F 83% 30.06 in 10.0 mi East 3.5 mph - N/A   Clear
6:15 PM 70.9 °F 65.7 °F 83% 30.05 in 10.0 mi ESE 5.8 mph - N/A   Scattered Clouds
6:35 PM 70.7 °F 66.0 °F 85% 30.05 in 10.0 mi ESE 4.6 mph - N/A Rain Light Rain
6:55 PM 70.2 °F 66.2 °F 87% 30.04 in 10.0 mi NE 3.5 mph - N/A Rain Light Rain
7:15 PM 70.7 °F 66.6 °F 87% 30.04 in 10.0 mi Calm Calm - N/A   Overcast
7:34 PM 69.8 °F 66.6 °F 89% 30.04 in 10.0 mi West 3.5 mph - N/A   Overcast
7:55 PM 69.8 °F 66.6 °F 89% 30.04 in 10.0 mi Calm Calm - N/A   Overcast
8:15 PM 69.4 °F 66.6 °F 91% 30.04 in 10.0 mi WNW 3.5 mph - N/A   Overcast
8:34 PM 69.4 °F 66.6 °F 91% 30.04 in 10.0 mi West 3.5 mph - N/A   Overcast
8:55 PM 68.9 °F 66.2 °F 91% 30.05 in 10.0 mi WNW 4.6 mph - N/A   Overcast
9:15 PM 68.9 °F 66.2 °F 91% 30.06 in 10.0 mi West 5.8 mph - N/A   Overcast
9:35 PM 68.9 °F 66.2 °F 91% 30.07 in 10.0 mi WNW 6.9 mph - N/A   Overcast
9:55 PM 68.9 °F 65.7 °F 89% 30.08 in 10.0 mi WNW 6.9 mph - N/A   Overcast
10:15 PM 68.7 °F 65.5 °F 89% 30.08 in 10.0 mi West 3.5 mph - N/A   Overcast
10:35 PM 68.9 °F 65.5 °F 89% 30.09 in 10.0 mi Calm Calm - N/A   Overcast
10:55 PM 68.9 °F 65.3 °F 88% 30.10 in 10.0 mi NW 4.6 mph - N/A   Overcast
11:15 PM 68.9 °F 65.3 °F 88% 30.10 in 10.0 mi NW 6.9 mph - N/A   Overcast
11:35 PM 69.1 °F 65.3 °F 88% 30.10 in 10.0 mi WNW 5.8 mph - N/A   Overcast
11:55 PM 68.9 °F 65.3 °F 88% 30.10 in 10.0 mi WNW 5.8 mph - N/A   Overcast